STARLINK-2387, 47806

Orbit data source: Space-Track

STARLINK-2387, 47806 is a payload satellite owned by SpaceX/Seattle (US) in LEO that was launched on Thu, 11 Mar 2021 UTC via an FALCON 9 launch vehicle from the Air Force Eastern Test Range (AFETR). Payload-class satellites include a variety of spacecraft equipped with specific instruments for various scientific and technological missions. These include communications satellites like Starlink; space stations such as the ISS; scientific satellites like the Hubble; Earth observation satellites from companies like Planet Labs, Umbra, and HawkEye 360; GPS; miniature CubeSats for education and research; and military/defense satellites.

Loading next visibility...
Identifier
47806, 2021-018V
Orbit
LEO
Country
Flag of USUS
Related business
Manufacturer
SpaceX/Seattle
Mission
Operational Commercial Communications
Bus & Motor
STARLINK, Unknown motor
Mass
260 kg wet, ~248 kg dry
Launch date (UTC)
2021-03-11 (5 years ago)
Launch vehicle
FALCON 9
Launch site
Air Force Eastern Test Range (AFETR)
Object type
Payload
Rocket body
Debris
Shape & HBR
Box + 1 Pan, 10.1 m
Radar Cross Section
13.562 m², Large (>1 m²)

Expand to show TLE details & history
Last TLE update: 11 hours ago

TLE from 11 hours ago
0 STARLINK-2387
1 47806U 21018V   26120.00001156  .00011443  00000-0  39800-3 0  9997
2 47806  53.1602   4.1160 0001343  83.7267 301.8445 15.30189626  5876
Epoch: 2026-04-30T00:00Z
TLE epoch observation values (Epoch: 2026-04-30T00:00:00.998Z)
Latitude
20.2424°
Longitude
162.10581°
Altitude
475.249 km
Speed
7.631 km/s
True Right ascension
01h 20m 15s
True Declination
20° 07' 35"
Sunlit
Object was in daylight at epoch
Visualization orbit readout
Latitude
Unknown
Longitude
Unknown
Altitude
Unknown
Speed
Unknown
Apparent Right ascension
Unknown
Apparent Declination
Unknown
Sunlit
N/A
Visualization observer readout
Local Sidereal Time
19:00:05
Azimuth
Unknown
Elevation
Unknown
Doppler factor
Unknown
Orbital elements
Apogee altitude
476.423 km
Perigee altitude
474.582 km
Semi-major axis
6,853.639 km
Eccentricity
0.00013
Inclination
53.1602°
RAAN
4.116°
Arg. of periapsis
83.7267°
True anomaly
301.83143°
Mean anomaly
301.8445°
Eccentric anomaly
301.83796°
Mean motion
3.82526 °/min
Orbital period
94.11 mins
BSTAR
0.000398
Loading maneuver chart data...
Computing Atmospheric mass density...
Loading historical data...
Loading historical data...
Loading historical data...
Loading historical data...
Loading historical data...
Loading historical data...
Loading historical data...

Documentation

Showing up to 5 results
|